Hourly Data Report for June 04, 2020

OTTAWA INTL A
ONTARIO
Current Station Operator: NAVCAN

45°19'00.000" N
75°40'00.000" W
114.90 m
6106001
71628
YOW

Download Data

Hourly Data (June 2020)
Hourly Data Report for June 4, 2020
TIME Temp Definition
°C
Dew Point Definition
°C
Rel Hum Definition
%
Wind Dir Definition
10's deg

Wind Spd Definition
km/h
Visibility Definition
km
Stn Press Definition
kPa
Hmdx Definition


Wind Chill Definition


Weather Definition


00:00 11.2 10.5 95 25 12 24.1 99.19     LegendNANA
01:00 10.5 10.1 97 25 9 24.1 99.22     Mainly Clear
02:00 10.4 9.8 96 36 3 24.1 99.21     LegendNANA
03:00 11.7 11.3 98 29 3 24.1 99.21     LegendNANA
04:00 10.9 10.6 98 22 5 24.1 99.25     Mainly Clear
05:00 10.9 10.7 98 22 3 24.1 99.30     LegendNANA
06:00 13.5 13.1 97 31 5 24.1 99.35     LegendNANA
07:00 15.8 14.4 91 22 8 24.1 99.38     Mostly Cloudy
08:00 18.9 15.2 79 24 7 24.1 99.36     LegendNANA
09:00 19.8 15.7 77 28 14 24.1 99.40     LegendNANA
10:00 20.1 14.8 71 27 14 24.1 99.46     Mostly Cloudy
11:00 21.2 14.0 63 27 11 24.1 99.46 25   LegendNANA
12:00 22.5 12.1 51 27 17 24.1 99.45 25   LegendNANA
13:00 24.1 10.9 43 27 20 24.1 99.45 26   Mainly Clear
14:00 24.9 11.9 44 32 22 24.1 99.42 27   LegendNANA
15:00 23.6 12.4 49 28 17 24.1 99.39 26   LegendNANA
16:00 23.9 12.5 48 27 8 24.1 99.38 26   Mainly Clear
17:00 25.1 13.0 46 28 11 24.1 99.38 28   LegendNANA
18:00 24.5 13.2 49 29 5 24.1 99.40 27   LegendNANA
19:00 21.6 16.0 70 12 4 24.1 99.41 26   Mostly Cloudy
20:00 20.6 13.8 65 4 8 24.1 99.41     LegendNANA
21:00 18.9 13.9 72 7 7 24.1 99.47     LegendNANA
22:00 17.4 12.5 73 6 9 24.1 99.49     Mostly Cloudy
23:00 17.4 13.0 75 23 10 24.1 99.53     LegendNANA

Notes on Data Quality.

Legend

  • E = Estimated
  • M = Missing
  • NA = Not Available*
  • [empty] = Indicates an unobserved value
Date modified: